FW3192 Weather Reports


time (UTC)temp
F
wind
direction
speed
knots
gust
knots
rain 1hr
in
rain 24hr
in
rain mn
in
humidity
%
barometer
mb
20260509001531 59 159 0.9 4.3 0.00 0.00 0.00 86 1029.8
20260509000028 59 126 0.0 2.6 0.00 0.00 0.00 86 1029.9
20260508234526 59 2 0.0 0.0 0.00 0.00 0.00 89 1030.0
20260508233021 58 44 0.0 0.9 0.00 0.00 0.00 92 1029.9
20260508231517 56 3 0.0 0.9 0.00 0.00 0.00 93 1029.9
20260508230018 54 334 0.0 1.7 0.00 0.00 0.00 94 1029.8
20260508224509 53 16 0.0 2.6 0.00 0.00 0.00 95 1029.7
20260508223052 52 36 0.0 0.9 0.00 0.00 0.00 94 1029.5
20260508221555 51 34 0.0 0.0 0.00 0.00 0.00 94 1029.5
20260508220048 50 17 0.9 1.7 0.00 0.00 0.00 94 1029.4
20260508214548 50 22 0.0 1.7 0.00 0.00 0.00 94 1029.3
20260508213047 49 29 1.7 2.6 0.00 0.00 0.00 94 1029.2
20260508211546 49 337 0.0 0.0 0.00 0.00 0.00 94 1029.1
20260508210046 48 48 0.0 0.0 0.00 0.00 0.00 93 1029.0
20260508204545 48 35 0.0 0.0 0.00 0.00 0.00 93 1028.9
20260508203033 48 40 0.0 1.7 0.00 0.00 0.00 93 1028.9
20260508201534 47 40 1.7 3.5 0.00 0.00 0.00 93 1028.6
20260508200033 47 76 0.0 0.9 0.00 0.00 0.00 93 1028.5
20260508194533 47 48 0.0 1.7 0.00 0.00 0.00 93 1028.4
20260508193025 47 31 0.9 1.7 0.00 0.00 0.00 91 1028.3
20260508191533 48 93 0.9 2.6 0.00 0.00 0.00 92 1028.1
20260508190032 48 99 1.7 1.7 0.00 0.00 0.00 92 1028.1
20260508184520 48 90 0.0 0.9 0.00 0.00 0.00 91 1028.1
20260508183005 49 96 0.9 2.6 0.00 0.00 0.00 91 1028.1
20260508181503 50 72 0.0 0.0 0.00 0.00 0.00 91 1028.3
20260508180104 50 72 0.0 0.0 0.00 0.00 0.00 90 1028.3
20260508174608 51 67 0.0 1.7 0.00 0.00 0.00 89 1028.3
20260508173055 52 85 0.0 1.7 0.00 0.00 0.00 89 1028.4
20260508171552 53 141 1.7 3.5 0.00 0.00 0.00 89 1028.4
20260508170051 53 182 2.6 4.3 0.00 0.00 0.00 90 1028.4
20260508164550 53 154 2.6 0.0 0.00 0.00 0.00 89 1028.4
20260508163053 54 154 2.6 4.3 0.00 0.00 0.00 88 1028.3
20260508161530 55 184 3.5 6.1 0.00 0.00 0.00 88 1028.4
20260508160029 55 175 5.2 7.8 0.00 0.00 0.00 88 1028.4
20260508154510 54 172 2.6 3.5 0.00 0.00 0.00 88 1028.4
20260508153008 54 188 1.7 3.5 0.00 0.00 0.00 88 1028.5
20260508151554 54 172 2.6 4.3 0.00 0.00 0.00 87 1028.5
20260508150050 55 171 4.3 7.0 0.00 0.00 0.00 88 1028.6
20260508144550 55 167 5.2 7.0 0.00 0.00 0.00 88 1028.6
20260508143047 55 174 1.7 3.5 0.00 0.00 0.00 87 1028.7
20260508141610 55 164 2.6 3.5 0.00 0.00 0.00 87 1028.8
20260508140144 55 183 0.9 4.3 0.00 0.00 0.00 86 1028.8
20260508134554 55 181 4.3 7.0 0.00 0.00 0.00 86 1028.9
20260508133038 56 168 4.3 7.8 0.00 0.00 0.00 86 1029.1
20260508131524 56 172 5.2 7.0 0.00 0.00 0.00 85 1029.1
20260508130021 56 176 0.9 3.5 0.00 0.00 0.00 84 1029.2
20260508124521 57 159 2.6 4.3 0.00 0.00 0.00 84 1029.2
20260508123027 57 154 3.5 6.1 0.00 0.00 0.00 83 1029.3
20260508121518 57 154 5.2 7.0 0.00 0.00 0.00 84 1029.3
20260508120018 56 151 3.5 5.2 0.00 0.00 0.00 85 1029.2
20260508114517 56 145 2.6 4.3 0.00 0.00 0.00 84 1029.2
20260508113016 57 154 2.6 4.3 0.00 0.00 0.00 83 1029.1
20260508111518 58 154 3.5 6.1 0.00 0.00 0.00 81 1029.0
20260508110015 58 159 4.3 7.8 0.00 0.00 0.00 80 1029.0
20260508104519 59 217 7.8 12.2 0.00 0.00 0.00 83 1028.9
20260508103016 60 200 8.7 13.0 0.00 0.00 0.00 81 1028.9
20260508101518 60 202 9.6 13.9 0.00 0.00 0.00 77 1029.0
20260508100013 60 180 6.1 9.6 0.00 0.00 0.00 78 1028.9
20260508094511 60 185 6.1 10.4 0.00 0.00 0.00 79 1028.7
20260508093014 60 167 7.8 11.3 0.00 0.00 0.00 77 1028.7
20260508091510 60 204 7.0 11.3 0.00 0.00 0.00 76 1028.6
20260508090020 60 187 8.7 12.2 0.00 0.00 0.00 79 1028.7
20260508084506 60 197 10.4 15.6 0.00 0.00 0.00 79 1028.5
20260508083006 60 187 8.7 12.2 0.00 0.00 0.00 81 1028.5
20260508081554 60 217 10.4 14.8 0.00 0.00 0.00 79 1028.4
20260508080049 60 199 10.4 14.8 0.00 0.00 0.00 81 1028.3
20260508074551 60 211 12.2 16.5 0.00 0.00 0.00 84 1028.2
20260508073048 60 175 7.8 12.2 0.00 0.00 0.00 85 1028.2
20260508071547 60 189 7.8 13.0 0.00 0.00 0.00 82 1028.2
20260508070045 60 177 8.7 13.9 0.00 0.00 0.00 85 1028.2
20260508064545 60 223 9.6 13.0 0.00 0.00 0.00 83 1028.2
20260508063048 62 204 10.4 14.8 0.00 0.00 0.00 81 1028.1
20260508061528 61 216 12.2 16.5 0.00 0.00 0.00 78 1028.2
20260508060032 62 232 13.0 18.2 0.00 0.00 0.00 77 1028.2
20260508054525 63 206 13.0 16.5 0.00 0.00 0.00 76 1028.0
20260508053033 62 215 13.0 16.5 0.00 0.00 0.00 76 1028.0
20260508051511 63 200 9.6 15.6 0.00 0.00 0.00 77 1028.1
20260508050050 62 219 8.7 13.9 0.00 0.00 0.00 80 1028.3
20260508044532 61 234 10.4 13.9 0.00 0.00 0.00 84 1028.4
20260508043029 61 213 9.6 15.6 0.00 0.00 0.00 83 1028.4
20260508041510 60 211 11.3 17.4 0.00 0.00 0.00 86 1028.6
20260508040011 59 279 7.0 13.0 0.00 0.00 0.00 89 1028.7
20260508034552 61 248 11.3 16.5 0.00 0.00 0.00 84 1028.8
20260508033050 60 217 9.6 13.9 0.00 0.00 0.00 88 1029.1
20260508031547 61 221 13.0 16.5 0.00 0.00 0.00 82 1029.2
20260508030047 61 240 8.7 15.6 0.00 0.00 0.00 81 1029.3
20260508024543 61 242 9.6 14.8 0.00 0.00 0.00 79 1029.5
20260508023043 61 230 8.7 16.5 0.00 0.00 0.00 82 1029.7
20260508021547 60 223 12.2 16.5 0.00 0.00 0.00 81 1029.8
20260508020039 62 239 8.7 13.0 0.00 0.00 0.00 76 1029.9
20260508014526 61 231 7.8 12.2 0.00 0.00 0.00 77 1030.1
20260508013033 60 215 9.6 16.5 0.00 0.00 0.00 78 1030.3
20260508011520 61 235 11.3 17.4 0.00 0.00 0.00 76 1030.5
20260508010017 60 218 7.0 12.2 0.00 0.00 0.00 77 1030.5
20260508004529 59 233 9.6 16.5 0.00 0.00 0.00 78 1030.5
20260508003012 59 225 9.6 14.8 0.00 0.00 0.00 76 1030.3